Location: *
(43.9900°N, 3.4811°E)
Time: 07:42:26
(UTC+00:00)

SL-16 R/B - Pass Details

Date: 25 August 2019
Orbit: 842 x 846 km, 71.0° (Epoch: 15 October)

Event Time Altitude Azimuth Distance (km) Brightness Sun altitude
Rises 21:21:40 0° 339° (NNW) 3,414 6.5 -26.1°
Reaches altitude 10° 21:24:14 10° 345° (NNW) 2,476 5.4 -26.4°
Maximum altitude 21:29:41 45° 58° (ENE) 1,134 2.7 -27.0°
Enters shadow 21:29:44 45° 60° (ENE) 1,134 2.7 -27.0°
